FW3284 Weather Reports


Display with metric or nautical units.
time (UTC)temp
F
wind
direction
speed
MPH
gust
MPH
rain 1hr
in
rain 24hr
in
rain mn
in
humidity
%
barometer
mb
20260507033054 49 307 0.0 0.0 0.00 0.02 0.02 61 1018.8
20260507031534 49 291 0.0 0.0 0.00 0.02 0.02 60 1018.7
20260507030014 50 318 0.0 0.0 0.00 0.03 0.02 60 1018.6
20260507024607 50 324 0.0 0.0 0.00 0.03 0.02 58 1018.4
20260507023043 51 325 0.0 0.0 0.00 0.03 0.02 58 1018.4
20260507021528 51 304 0.0 0.0 0.00 0.03 0.02 57 1018.3
20260507020014 52 316 0.0 0.0 0.00 0.08 0.02 56 1018.2
20260507014608 53 318 0.0 0.0 0.00 0.08 0.02 54 1018.0
20260507013035 54 309 0.0 0.0 0.00 0.08 0.02 53 1017.8
20260507011513 54 311 0.0 0.0 0.00 0.08 0.02 54 1017.6
20260507010108 55 309 0.0 0.0 0.00 0.10 0.02 53 1017.6
20260507004543 55 315 0.0 0.0 0.00 0.10 0.02 51 1017.5
20260507003024 56 338 0.0 0.0 0.00 0.10 0.02 52 1017.2
20260507001515 56 334 0.0 1.0 0.00 0.10 0.02 49 1017.1
20260507000047 57 359 0.0 1.0 0.00 0.11 0.02 48 1016.6
20260506234533 58 333 0.0 0.0 0.00 0.11 0.02 46 1016.5
20260506233016 58 18 0.0 10.0 0.00 0.11 0.02 49 1016.5
20260506231600 58 338 0.0 10.0 0.00 0.11 0.02 48 1016.6
20260506231504 58 10 0.0 10.0 0.00 0.11 0.02 50 1016.6
20260506230043 59 336 0.0 1.0 0.00 0.12 0.02 47 1016.6
20260506224517 59 359 0.0 1.0 0.00 0.12 0.02 46 1016.5
20260506223050 59 342 2.0 7.0 0.00 0.12 0.02 47 1016.6
20260506221533 59 360 0.0 8.0 0.00 0.12 0.02 50 1016.6
20260506220019 59 281 0.0 1.0 0.00 0.12 0.02 46 1016.5
20260506214553 59 360 0.0 2.0 0.00 0.12 0.02 47 1016.7
20260506213040 59 328 0.0 1.0 0.00 0.12 0.02 47 1016.8
20260506211518 60 37 0.0 1.0 0.00 0.12 0.02 47 1017.1
20260506210100 59 32 0.0 2.0 0.00 0.12 0.02 50 1017.0
20260506210003 59 30 0.0 3.0 0.00 0.12 0.02 56 1017.0
20260506204536 59 308 0.0 0.0 0.00 0.12 0.02 48 1016.9
20260506203018 59 304 0.0 10.0 0.00 0.12 0.02 51 1017.2
20260506201502 58 328 8.0 13.0 0.00 0.12 0.02 47 1017.5
20260506200038 58 330 0.0 1.0 0.00 0.12 0.02 52 1017.9
20260506194521 59 32 0.0 3.0 0.00 0.12 0.02 50 1017.9
20260506193056 58 353 0.0 1.0 0.00 0.12 0.02 51 1018.1
20260506191542 58 342 0.0 7.0 0.00 0.12 0.02 53 1018.2
20260506190019 58 347 0.0 1.0 0.00 0.12 0.02 55 1018.4
20260506184601 57 322 0.0 3.0 0.00 0.12 0.02 55 1018.6
20260506183041 57 53 0.0 2.0 0.00 0.12 0.02 53 1018.9
20260506181512 56 43 0.0 0.0 0.00 0.12 0.02 58 1018.9
20260506180055 56 343 0.0 1.0 0.00 0.12 0.02 54 1019.0
20260506174532 55 312 0.0 0.0 0.00 0.12 0.02 55 1019.1
20260506173018 54 309 0.0 1.0 0.00 0.12 0.02 57 1019.2
20260506171557 54 359 0.0 10.0 0.00 0.12 0.02 61 1018.8
20260506170036 53 87 6.0 10.0 0.00 0.12 0.02 60 1018.7
20260506164517 53 349 0.0 1.0 0.00 0.12 0.02 63 1018.9
20260506163102 53 330 0.0 1.0 0.00 0.12 0.02 64 1018.8
20260506161533 52 6 0.0 2.0 0.00 0.12 0.02 64 1018.7
20260506160012 53 359 0.0 1.0 0.00 0.12 0.02 66 1018.5
20260506154547 52 41 0.0 1.0 0.00 0.12 0.02 67 1018.2
20260506153021 51 66 1.0 6.0 0.00 0.12 0.02 67 1018.1
20260506151602 50 47 0.0 1.0 0.00 0.12 0.02 69 1018.0
20260506151505 50 41 0.0 1.0 0.00 0.12 0.02 68 1017.9
20260506150042 50 1 0.0 2.0 0.00 0.12 0.02 75 1018.1
20260506144525 48 25 0.0 1.0 0.00 0.12 0.02 74 1018.1
20260506143013 48 19 0.0 1.0 0.00 0.12 0.02 76 1018.0
20260506141539 47 360 0.0 1.0 0.00 0.12 0.02 81 1018.0
20260506140023 47 53 0.0 1.0 0.00 0.12 0.02 85 1017.6
20260506134554 45 39 0.0 4.0 0.00 0.12 0.02 84 1017.7
20260506133028 45 359 0.0 1.0 0.00 0.12 0.02 88 1017.5
20260506131506 45 308 0.0 0.0 0.00 0.12 0.02 90 1017.9
20260506130052 44 333 0.0 0.0 0.00 0.12 0.02 91 1018.0
20260506124528 44 326 0.0 0.0 0.00 0.12 0.02 91 1018.1
20260506123009 44 313 0.0 0.0 0.00 0.12 0.02 91 1018.1
20260506121549 44 338 0.0 0.0 0.00 0.12 0.02 92 1017.7
20260506120031 44 305 0.0 0.0 0.00 0.12 0.02 92 1017.5
20260506114509 43 319 0.0 0.0 0.00 0.12 0.02 93 1017.3
20260506113043 43 320 0.0 0.0 0.00 0.12 0.02 94 1016.8
20260506111526 43 333 0.0 0.0 0.00 0.12 0.02 94 1016.4
20260506110057 43 322 0.0 0.0 0.01 0.12 0.02 94 1016.2
20260506110006 43 323 0.0 0.0 0.01 0.12 0.02 94 1016.3
20260506104543 43 330 0.0 0.0 0.01 0.12 0.02 94 1016.1
20260506103022 43 317 0.0 0.0 0.02 0.12 0.02 94 1015.8
20260506101557 43 309 0.0 0.0 0.02 0.12 0.02 94 1015.7
20260506100040 43 316 0.0 0.0 0.01 0.11 0.01 93 1015.7
20260506094515 43 347 0.0 1.0 0.01 0.11 0.01 93 1015.3
20260506093112 43 322 0.0 0.0 0.00 0.10 0.00 93 1015.3
20260506091527 43 321 0.0 1.0 0.00 0.10 0.00 93 1014.8
20260506090008 43 353 0.0 0.0 0.00 0.11 0.00 92 1014.1
20260506084550 43 358 0.0 1.0 0.00 0.11 0.00 92 1013.8
20260506083034 43 35 0.0 1.0 0.00 0.11 0.00 92 1013.2
20260506081512 43 41 0.0 7.0 0.00 0.11 0.00 93 1012.9
20260506073010 43 353 0.0 0.0 0.00 0.11 0.00 93 1014.1
20260506071551 43 323 0.0 0.0 0.00 0.11 0.00 93 1014.5
20260506061542 43 55 0.0 0.0 0.00 0.11 0.00 93 1014.2
20260506044515 43 5 1.0 4.0 0.00 0.11 0.11 92 1013.1
20260506043052 43 77 0.0 2.0 0.00 0.11 0.11 91 1012.5
20260506041524 43 54 0.0 1.0 0.00 0.11 0.11 90 1012.9
20260506040017 43 40 2.0 5.0 0.00 0.11 0.11 90 1013.1
20260506034602 43 18 0.0 1.0 0.00 0.11 0.11 90 1012.8